Terminal Aerodrome Forecast
Issued by NWS

Home | Current Version | Previous Version | Text Only | Print | Product List | Glossary On
Versions: 1 2 3 4 5 6 7 8 9 10 11 12 13 14 15 16 17 18
000
FTUS42 KKEY 010042 AAA
TAFMTH
TAF AMD
KMTH 010042Z 0101/0124 VRB05KT P6SM VCTS SCT025CB BKN060
      TEMPO 0101/0103 VRB14G20KT 3SM TSRA BKN025CB
     FM010600 06005KT P6SM FEW025 BKN250
     FM011900 06006KT P6SM VCSH SCT025=

USA.gov is the U.S. government's official web portal to all federal, state and local government web resources and services.